Muskegon, MI

6:28 PM EST on January 16, 2017 (GMT -0500)
Muskegon County

Weather History for KMKG - October, 2012

Change the Weather History Date:

Wednesday, October 17, 2012

  Actual Average Record
Temperature  
Mean Temperature 62 °F 50 °F  
Max Temperature 69 °F 58 °F 78 °F (1968)
Min Temperature 54 °F 42 °F 25 °F (1977)
Degree Days  
Heating Degree Days 3 15  
Month to date heating degree days 230 210  
Since 1 July heating degree days 372 383  
Cooling Degree Days 0 0  
Month to date cooling degree days 0 2  
Year to date cooling degree days 925 563  
Growing Degree Days 11 (Base 50)    
Moisture  
Dew Point 52 °F    
Average Humidity 64    
Maximum Humidity 80    
Minimum Humidity 47    
Precipitation  
Precipitation 0.43 in 0.09 in 1.60 in (1905)
Month to date precipitation 3.45 1.70  
Year to date precipitation 24.72 26.17  
Snow  
Snow 0.00 in 0.00 in 1.00 in (1952)
Month to date snowfall T 0.0  
Since 1 July snowfall T 0.0  
Since 1 September snowfall T 0.0  
Snow Depth 0.00 in    
Sea Level Pressure  
Sea Level Pressure 29.50 in    
Wind  
Wind Speed 17 mph (South)    
Max Wind Speed 24 mph    
Max Gust Speed 36 mph    
Visibility 9 miles    
Events Rain , Thunderstorm    
T = Trace of Precipitation, MM = Missing Value Source: NWS Daily Summary

Daily Weather History Graph

Daily Weather History Graph

Search for Another Location

Airport or City:

Trip Planner

Search our weather history database for the weather conditions in past years. The results will help you decide how hot, cold, wet, or windy it might be!

Date:

Astronomy

Oct. 17, 2012 Rise Set
Actual Time 8:01 AM EDT 6:58 PM EDT
Civil Twilight 7:32 AM EDT 7:26 PM EDT
Nautical Twilight 6:59 AM EDT 7:59 PM EDT
Astronomical Twilight 6:26 AM EDT 8:32 PM EDT
Moon 10:40 AM EDT (10/17) 8:28 PM EDT (10/17)
Length of Visible Light 11h 53m
Length of Day
10h 56m
Waxing Crescent, 7% of the Moon is Illuminated
Oct 17
Waxing Crescent
Oct 21
First Quarter
Oct 29
Full
Nov 6
Last Quarter
Nov 13
New

Hourly Weather History & Observations

Time (EDT) Temp. Dew Point Humidity Pressure Visibility Wind Dir Wind Speed Gust Speed Precip Events Conditions
12:55 AM 54.0 °F 43.0 °F 66% 29.60 in 10.0 mi SE 9.2 mph - N/A   Partly Cloudy
1:55 AM 57.0 °F 44.1 °F 62% 29.59 in 10.0 mi SE 6.9 mph - N/A   Clear
2:55 AM 61.0 °F 48.9 °F 64% 29.57 in 10.0 mi South 15.0 mph 24.2 mph 0.00 in   Mostly Cloudy
3:55 AM 63.0 °F 51.1 °F 65% 29.55 in 10.0 mi South 18.4 mph 27.6 mph N/A   Overcast
4:55 AM 63.0 °F 51.1 °F 65% 29.55 in 10.0 mi South 20.7 mph 26.5 mph 0.00 in   Partly Cloudy
5:55 AM 63.0 °F 51.1 °F 65% 29.55 in 10.0 mi South 15.0 mph 28.8 mph N/A   Clear
6:55 AM 62.1 °F 51.1 °F 67% 29.55 in 10.0 mi South 19.6 mph 28.8 mph N/A   Clear
7:55 AM 62.1 °F 50.0 °F 65% 29.55 in 10.0 mi South 21.9 mph 28.8 mph N/A   Clear
8:55 AM 62.1 °F 50.0 °F 65% 29.57 in 10.0 mi South 17.3 mph 31.1 mph N/A   Clear
9:55 AM 63.0 °F 50.0 °F 63% 29.57 in 10.0 mi South 19.6 mph 28.8 mph N/A   Clear
10:55 AM 64.0 °F 50.0 °F 60% 29.56 in 10.0 mi South 19.6 mph 34.5 mph N/A   Clear
11:55 AM 66.0 °F 48.9 °F 54% 29.55 in 10.0 mi South 16.1 mph 29.9 mph N/A   Clear
12:55 PM 66.9 °F 48.0 °F 51% 29.54 in 10.0 mi South 20.7 mph 31.1 mph N/A   Mostly Cloudy
1:55 PM 68.0 °F 48.9 °F 50% 29.52 in 10.0 mi South 16.1 mph 26.5 mph N/A   Mostly Cloudy
2:55 PM 69.1 °F 48.9 °F 49% 29.50 in 10.0 mi South 12.7 mph - N/A   Overcast
3:49 PM 64.4 °F 51.8 °F 64% 29.47 in 10.0 mi SSE 13.8 mph - 0.04 in Rain , Thunderstorm Light Thunderstorms and Rain
3:55 PM 64.9 °F 52.0 °F 63% 29.47 in 6.0 mi South 12.7 mph - 0.04 in Rain , Thunderstorm Light Thunderstorms and Rain
4:28 PM 60.8 °F 53.6 °F 77% 29.49 in 2.5 mi South 13.8 mph 24.2 mph 0.06 in Rain , Thunderstorm Heavy Thunderstorms and Rain
4:38 PM 62.6 °F 55.4 °F 77% 29.48 in 5.0 mi South 10.4 mph 24.2 mph 0.11 in Rain , Thunderstorm Light Thunderstorms and Rain
4:55 PM 62.1 °F 55.0 °F 78% 29.46 in 10.0 mi SSE 9.2 mph - 0.11 in Thunderstorm Thunderstorm
5:04 PM 62.6 °F 55.4 °F 77% 29.46 in 10.0 mi SSE 6.9 mph - N/A   Overcast
5:55 PM 64.0 °F 55.0 °F 73% 29.47 in 10.0 mi South 12.7 mph 23.0 mph N/A   Overcast
6:53 PM 60.8 °F 55.4 °F 82% 29.48 in 2.0 mi South 16.1 mph 27.6 mph 0.10 in Rain Heavy Rain
6:55 PM 60.1 °F 55.9 °F 86% 29.47 in 2.0 mi South 11.5 mph 23.0 mph 0.14 in Rain Heavy Rain
7:05 PM 60.8 °F 55.4 °F 82% 29.47 in 9.0 mi SSE 15.0 mph 20.7 mph 0.05 in Rain Light Rain
7:55 PM 61.0 °F 55.0 °F 81% 29.47 in 10.0 mi SSE 12.7 mph 20.7 mph 0.05 in   Overcast
8:46 PM 59.0 °F 55.4 °F 88% 29.46 in 8.0 mi South 12.7 mph 20.7 mph 0.06 in Rain Light Rain
8:55 PM 60.1 °F 55.0 °F 83% 29.46 in 10.0 mi SSE 15.0 mph 24.2 mph 0.06 in Rain Light Rain
9:04 PM 60.8 °F 55.4 °F 82% 29.45 in 10.0 mi SSE 16.1 mph 23.0 mph 0.00 in   Overcast
9:44 PM 59.0 °F 53.6 °F 82% 29.43 in 10.0 mi SSE 17.3 mph 24.2 mph 0.00 in   Overcast
9:55 PM 59.0 °F 54.0 °F 83% 29.42 in 10.0 mi SSE 17.3 mph 25.3 mph 0.00 in   Overcast
10:55 PM 59.0 °F 54.0 °F 83% 29.39 in 10.0 mi ESE 19.6 mph 29.9 mph 0.00 in   Overcast
11:55 PM 60.1 °F 54.0 °F 80% 29.37 in 9.0 mi SE 24.2 mph 29.9 mph 0.01 in Rain Light Rain